Weather History for Mammoth, CA

Change the Weather History Date:

Sunday, December 1, 2013

  Actual Average Record
Temperature  
Mean Temperature 35 °F -  
Max Temperature 60 °F 40 °F 64 °F (2008)
Min Temperature 10 °F 25 °F 10 °F (2013)
Degree Days  
Heating Degree Days 30    
Moisture  
Dew Point 11 °F    
Average Humidity 48    
Maximum Humidity 86    
Minimum Humidity 10    
Precipitation  
Precipitation 0.00 in - - ()
Sea Level Pressure  
Sea Level Pressure 30.41 in    
Wind  
Wind Speed 3 mph (NW)    
Max Wind Speed 9 mph    
Max Gust Speed -    
Visibility 10 miles    
Events      
Averages and records for this station are not official NWS values.
T = Trace of Precipitation, MM = Missing Value Source: NWS Daily Summary

Daily Weather History Graph

Daily Weather History Graph

Search for Another Location

Airport:

Trip Planner

Search our weather history database for the weather conditions in past years. The results will help you decide how hot, cold, wet, or windy it might be!

Date:

Astronomy

Dec. 01, 2013 Rise Set
Actual Time 6:51 AM PST 4:37 PM PST
Civil Twilight 6:23 AM PST 5:05 PM PST
Nautical Twilight 5:50 AM PST 5:38 PM PST
Astronomical Twilight 5:18 AM PST 6:09 PM PST
Moon 5:16 AM PST (12/1) 3:49 PM PST (12/1)
Length of Visible Light 10h 42m
Length of Day
9h 45m
Waning Crescent, 2% of the Moon is Illuminated
Dec 1
Waning Crescent
Dec 2
New
Dec 9
First Quarter
Dec 17
Full
Dec 25
Last Quarter

Hourly Weather History & Observations

Time (PST) Temp. Windchill Dew Point Humidity Pressure Visibility Wind Dir Wind Speed Gust Speed Precip Events Conditions
12:15 AM 21.2 °F 16.4 °F 12.2 °F 68% 30.39 in 10.0 mi NNW 3.5 mph - N/A   Clear
12:35 AM 17.6 °F 10.7 °F 10.4 °F 73% 30.39 in 10.0 mi WNW 4.6 mph - N/A   Clear
12:55 AM 17.6 °F - 10.4 °F 73% 30.39 in 10.0 mi Calm Calm - N/A   Clear
1:15 AM 19.4 °F - 12.2 °F 74% 30.39 in 10.0 mi North - - N/A   Clear
1:35 AM 21.2 °F 16.4 °F 12.2 °F 68% 30.39 in 10.0 mi North 3.5 mph - N/A   Clear
1:55 AM 17.6 °F 12.3 °F 10.4 °F 73% 30.39 in 10.0 mi North 3.5 mph - N/A   Clear
2:15 AM 19.4 °F - 12.2 °F 74% 30.39 in 10.0 mi Calm Calm - N/A   Clear
2:35 AM 19.4 °F - 12.2 °F 74% 30.39 in 10.0 mi North - - N/A   Clear
2:55 AM 15.8 °F 10.2 °F 8.6 °F 73% 30.39 in 10.0 mi NNW 3.5 mph - N/A   Clear
3:15 AM 15.8 °F 10.2 °F 10.4 °F 79% 30.39 in 10.0 mi NW 3.5 mph - N/A   Clear
3:35 AM 15.8 °F - 10.4 °F 79% 30.39 in 10.0 mi Calm Calm - N/A   Clear
3:55 AM 17.6 °F - 12.2 °F 79% 30.39 in 10.0 mi Calm Calm - N/A   Clear
4:15 AM 17.6 °F - 12.2 °F 79% 30.39 in 10.0 mi Calm Calm - N/A   Clear
4:35 AM 14.0 °F 6.5 °F 10.4 °F 86% 30.39 in 10.0 mi NW 4.6 mph - N/A   Clear
4:55 AM 12.2 °F - 8.6 °F 85% 30.40 in 10.0 mi Calm Calm - N/A   Clear
5:15 AM 14.0 °F - 10.4 °F 86% 30.40 in 10.0 mi Calm Calm - N/A   Clear
5:35 AM 15.8 °F - 12.2 °F 86% 30.41 in 10.0 mi Calm Calm - N/A   Clear
5:55 AM 12.2 °F 6.1 °F 8.6 °F 85% 30.41 in 10.0 mi NNW 3.5 mph - N/A   Clear
6:15 AM 10.4 °F - 6.8 °F 85% 30.42 in 10.0 mi Calm Calm - N/A   Clear
6:35 AM 10.4 °F - 5.0 °F 79% 30.43 in 10.0 mi Calm Calm - N/A   Clear
6:55 AM 10.4 °F 4.0 °F 6.8 °F 85% 30.42 in 10.0 mi NNW 3.5 mph - N/A   Clear
7:15 AM 12.2 °F - 8.6 °F 85% 30.43 in 10.0 mi North - - N/A   Clear
7:35 AM 14.0 °F - 8.6 °F 79% 30.43 in 10.0 mi Calm Calm - N/A   Clear
7:55 AM 19.4 °F - 12.2 °F 74% 30.44 in 10.0 mi Calm Calm - N/A   Clear
8:15 AM 23.0 °F - 14.0 °F 68% 30.44 in 10.0 mi Calm Calm - N/A   Clear
8:35 AM 26.6 °F - 14.0 °F 59% 30.46 in 10.0 mi Calm Calm - N/A   Clear
8:55 AM 28.4 °F - 15.8 °F 59% 30.45 in 10.0 mi North - - N/A   Clear
9:15 AM 33.8 °F - 15.8 °F 48% 30.46 in 10.0 mi Calm Calm - N/A   Clear
9:35 AM 35.6 °F 32.8 °F 15.8 °F 44% 30.46 in 10.0 mi SE 3.5 mph - N/A   Clear
9:55 AM 39.2 °F - 14.0 °F 36% 30.46 in 10.0 mi Calm Calm - N/A   Clear
10:15 AM 41.0 °F - 15.8 °F 36% 30.46 in 10.0 mi Calm Calm - N/A   Clear
10:35 AM 44.6 °F - 15.8 °F 31% 30.45 in 10.0 mi Calm Calm - N/A   Clear
10:55 AM 46.4 °F 43.5 °F 15.8 °F 29% 30.44 in 10.0 mi SE 5.8 mph - N/A   Clear
11:15 AM 46.4 °F 43.5 °F 17.6 °F 32% 30.43 in 10.0 mi SE 5.8 mph - N/A   Clear
11:35 AM 50.0 °F - 15.8 °F 26% 30.42 in 10.0 mi SE 5.8 mph - N/A   Clear
11:55 AM 51.8 °F - 15.8 °F 24% 30.40 in 10.0 mi SE 5.8 mph - N/A   Clear
12:15 PM 53.6 °F - 14.0 °F 21% 30.40 in 10.0 mi SE 6.9 mph - N/A   Clear
12:35 PM 57.2 °F - 14.0 °F 18% 30.39 in 10.0 mi SE 4.6 mph - N/A   Clear
12:55 PM 59.0 °F - 6.8 °F 13% 30.38 in 10.0 mi Calm Calm - N/A   Clear
1:15 PM 59.0 °F - 6.8 °F 13% 30.38 in 10.0 mi Calm Calm - N/A   Clear
1:35 PM 60.8 °F - 8.6 °F 13% 30.38 in 10.0 mi East 5.8 mph - N/A   Clear
1:55 PM 60.8 °F - 8.6 °F 13% 30.38 in 10.0 mi Calm Calm - N/A   Clear
2:15 PM 60.8 °F - 6.8 °F 12% 30.38 in 10.0 mi SE 3.5 mph - N/A   Clear
2:35 PM 60.8 °F - 6.8 °F 12% 30.38 in 10.0 mi Calm Calm - N/A   Clear
2:55 PM 60.8 °F - 6.8 °F 12% 30.38 in 10.0 mi WNW 3.5 mph - N/A   Clear
3:15 PM 60.8 °F - 3.2 °F 10% 30.38 in 10.0 mi NNW 9.2 mph - N/A   Clear
3:35 PM 57.2 °F - 3.2 °F 11% 30.38 in 10.0 mi NW 3.5 mph - N/A   Clear
3:55 PM 51.8 °F - 3.2 °F 14% 30.39 in 10.0 mi WNW 4.6 mph - N/A   Clear
4:15 PM 50.0 °F - 3.2 °F 15% 30.39 in 10.0 mi West 3.5 mph - N/A   Clear
4:35 PM 48.2 °F - 5.0 °F 17% 30.38 in 10.0 mi WSW 3.5 mph - N/A   Clear
4:55 PM 42.8 °F - 6.8 °F 23% 30.39 in 10.0 mi Calm Calm - N/A   Clear
5:15 PM 39.2 °F 35.9 °F 3.2 °F 22% 30.40 in 10.0 mi NW 4.6 mph - N/A   Clear
5:35 PM 39.2 °F 35.9 °F 8.6 °F 28% 30.40 in 10.0 mi NNW 4.6 mph - N/A   Clear
5:55 PM 39.2 °F 37.0 °F 10.4 °F 31% 30.41 in 10.0 mi NW 3.5 mph - N/A   Clear
6:15 PM 37.4 °F - 10.4 °F 33% 30.42 in 10.0 mi Calm Calm - N/A   Clear
6:35 PM 35.6 °F 29.2 °F 8.6 °F 33% 30.41 in 10.0 mi NNW 8.1 mph - N/A   Clear
6:55 PM 33.8 °F - 10.4 °F 38% 30.41 in 10.0 mi Calm Calm - N/A   Clear
7:15 PM 35.6 °F - 10.4 °F 35% 30.41 in 10.0 mi Calm Calm - N/A   Clear
7:35 PM 32.0 °F 24.2 °F 12.2 °F 44% 30.42 in 10.0 mi West 9.2 mph - N/A   Clear
7:55 PM 33.8 °F 27.7 °F 12.2 °F 41% 30.43 in 10.0 mi WNW 6.9 mph - N/A   Clear
8:15 PM 33.8 °F - 14.0 °F 44% 30.43 in 10.0 mi Calm Calm - N/A   Clear
8:35 PM 32.0 °F - 14.0 °F 48% 30.43 in 10.0 mi Calm Calm - N/A   Clear
8:55 PM 33.8 °F - 14.0 °F 44% 30.42 in 10.0 mi Calm Calm - N/A   Clear
9:15 PM 32.0 °F 28.7 °F 12.2 °F 44% 30.42 in 10.0 mi NNW 3.5 mph - N/A   Clear
9:35 PM 30.2 °F 25.4 °F 12.2 °F 47% 30.43 in 10.0 mi NNW 4.6 mph - N/A   Clear
9:55 PM 28.4 °F 24.6 °F 12.2 °F 51% 30.44 in 10.0 mi WNW 3.5 mph - N/A   Clear
10:15 PM 28.4 °F 22.2 °F 12.2 °F 51% 30.44 in 10.0 mi North 5.8 mph - N/A   Clear
10:35 PM 30.2 °F - 12.2 °F 47% 30.44 in 10.0 mi Calm Calm - N/A   Clear
10:55 PM 30.2 °F 25.4 °F 12.2 °F 47% 30.43 in 10.0 mi NNW 4.6 mph - N/A   Clear
11:15 PM 26.6 °F 22.6 °F 12.2 °F 55% 30.42 in 10.0 mi NNW 3.5 mph - N/A   Clear
11:35 PM 28.4 °F 23.3 °F 12.2 °F 51% 30.41 in 10.0 mi NNW 4.6 mph - N/A   Clear
11:55 PM 26.6 °F - 14.0 °F 59% 30.41 in 10.0 mi Calm Calm - N/A   Clear